Consulta les dades en temps real de l'estació municipal de El Brull
| Hora UTC | 08:50 |
|---|---|
| Temperatura | 26.9 ºC |
| Humitat | 44.8 % |
| Pressió | 1025.7 hPa |
| Pluja | 0.0 mm |
| Velocitat vent | 9.2 km/h |
| Direcció vent | SSW |
| Radiació solar | 555.3 W/m² |
| Temperatura (ºC) | Humitat (%) | Pressió (hPa) | Velocitat vent (km/h) | Precipitació (mm) | Radiació solar (W/m²) | |||||||||||||
|---|---|---|---|---|---|---|---|---|---|---|---|---|---|---|---|---|---|---|
| Hora UTC | Aire | Humitat | Pressió | Vel. | Dir. | Vel. Max | Dir. | Intent. màx 5 min. | Rad. Sol. | |||||||||
| 00:10 | 19.9 | 72.8 | 1025.2 | 1.1 | N | 5.1 | NNW | 0.0 | 0.0 | |||||||||
| 00:20 | 19.4 | 74.4 | 1025.2 | 0.2 | NNE | 2.8 | NNW | 0.0 | 0.0 | |||||||||
| 00:30 | 19.2 | 74.8 | 1025.3 | 0.2 | NNE | 1.5 | N | 0.0 | 0.0 | |||||||||
| 00:40 | 19.1 | 74.7 | 1025.3 | 0.4 | NE | 1.6 | N | 0.0 | 0.0 | |||||||||
| 00:50 | 19.1 | 74.1 | 1025.2 | 0.2 | NE | 1.5 | NE | 0.0 | 0.0 | |||||||||
| 01:00 | 19.3 | 72.5 | 1025.2 | 0.3 | NNE | 2.8 | NE | 0.0 | 0.0 | |||||||||
| 01:10 | 19.5 | 72.2 | 1025.2 | 0.0 | NNE | 0.0 | 0.0 | 0.0 | ||||||||||
| 01:20 | 19.4 | 72.8 | 1025.2 | 0.0 | NE | 0.8 | NE | 0.0 | 0.0 | |||||||||
| 01:40 | 19.1 | 75.3 | 1025.1 | 0.0 | NNE | 1.2 | N | 0.0 | 0.0 | |||||||||
| 01:50 | 19.1 | 75.6 | 1025.1 | 0.0 | NE | 0.6 | NE | 0.0 | 0.0 | |||||||||
| 02:00 | 19.2 | 75.2 | 1025.1 | 0.0 | NNE | 0.0 | 0.0 | 0.0 | ||||||||||
| 02:10 | 19.4 | 74.4 | 1025.1 | 0.1 | NE | 1.3 | NNE | 0.0 | 0.0 | |||||||||
| 02:20 | 19.5 | 73.8 | 1025.1 | 0.3 | E | 1.6 | NNE | 0.0 | 0.0 | |||||||||
| 02:30 | 19.5 | 72.1 | 1025.1 | 1.6 | SE | 4.1 | SE | 0.0 | 0.0 | |||||||||
| 02:40 | 19.6 | 71.4 | 1025.1 | 2.2 | ESE | 5.6 | SE | 0.0 | 0.0 | |||||||||
| 02:50 | 19.7 | 71.1 | 1025.0 | 2.3 | ESE | 4.9 | ESE | 0.0 | 0.0 | |||||||||
| 03:00 | 19.6 | 71.2 | 1024.9 | 2.1 | ESE | 4.8 | ESE | 0.0 | 0.0 | |||||||||
| 03:10 | 20.0 | 70.3 | 1024.9 | 1.5 | ESE | 4.9 | SE | 0.0 | 0.0 | |||||||||
| 03:20 | 20.3 | 68.4 | 1024.9 | 1.6 | ESE | 3.6 | ESE | 0.0 | 0.0 | |||||||||
| 03:30 | 20.5 | 68.1 | 1024.9 | 1.7 | N | 6.0 | NNW | 0.0 | 0.0 | |||||||||
| 03:40 | 20.0 | 71.1 | 1024.8 | 2.1 | N | 5.2 | N | 0.0 | 0.0 | |||||||||
| 03:50 | 20.0 | 70.8 | 1024.7 | 1.1 | ESE | 3.9 | SE | 0.0 | 0.0 | |||||||||
| 04:00 | 19.9 | 68.5 | 1024.6 | 2.6 | SE | 4.4 | SE | 0.0 | 0.0 | |||||||||
| 04:10 | 19.9 | 67.7 | 1024.5 | 2.6 | SE | 6.1 | SSE | 0.0 | 0.0 | |||||||||
| 04:20 | 20.1 | 66.4 | 1024.5 | 2.9 | SE | 5.1 | SE | 0.0 | 0.0 | |||||||||
| 04:30 | 20.1 | 66.0 | 1024.5 | 3.0 | SE | 5.5 | SE | 0.0 | 0.0 | |||||||||
| 04:40 | 20.3 | 65.2 | 1024.5 | 4.3 | SE | 7.1 | SE | 0.0 | 0.0 | |||||||||
| 04:50 | 20.3 | 64.9 | 1024.5 | 1.9 | SE | 5.5 | SSE | 0.0 | 0.0 | |||||||||
| 05:00 | 20.5 | 64.3 | 1024.6 | 0.1 | SSW | 2.1 | SSW | 0.0 | 0.2 | |||||||||
| 05:10 | 20.5 | 65.3 | 1024.6 | 1.4 | WSW | 2.9 | NNW | 0.0 | 0.9 | |||||||||
| 05:20 | 20.4 | 66.1 | 1024.7 | 0.9 | SSE | 2.6 | SE | 0.0 | 2.9 | |||||||||
| 05:30 | 20.2 | 64.8 | 1024.8 | 2.5 | SE | 3.5 | SE | 0.0 | 0.0 | |||||||||
| 05:40 | 20.2 | 64.7 | 1024.9 | 2.1 | SE | 4.8 | SE | 0.0 | 10.9 | |||||||||
| 05:50 | 20.3 | 64.3 | 1024.9 | 1.8 | SE | 3.9 | SE | 0.0 | 15.1 | |||||||||
| 06:10 | 20.4 | 64.1 | 1025.1 | 2.6 | SSE | 4.9 | SE | 0.0 | 24.4 | |||||||||
| 06:20 | 20.8 | 63.8 | 1025.2 | 2.8 | SSE | 4.6 | SSE | 0.0 | 29.8 | |||||||||
| 06:30 | 21.2 | 63.2 | 1025.3 | 2.2 | SSE | 3.5 | SSE | 0.0 | 57.7 | |||||||||
| 06:40 | 21.6 | 62.5 | 1025.3 | 3.3 | SSE | 5.5 | SSE | 0.0 | 145.0 | |||||||||
| 06:50 | 22.5 | 60.2 | 1025.3 | 4.8 | SSE | 9.1 | S | 0.0 | 199.3 | |||||||||
| 07:00 | 23.4 | 57.0 | 1025.3 | 5.7 | SSE | 9.1 | SSE | 0.0 | 230.7 | |||||||||
| 07:10 | 24.1 | 55.3 | 1025.3 | 5.0 | S | 8.2 | SSW | 0.0 | 262.1 | |||||||||
| 07:20 | 24.5 | 53.5 | 1025.4 | 6.3 | S | 10.5 | S | 0.0 | 293.1 | |||||||||
| 07:30 | 24.8 | 52.7 | 1025.4 | 7.0 | S | 10.4 | SSW | 0.0 | 324.3 | |||||||||
| 07:40 | 25.0 | 51.7 | 1025.4 | 8.0 | S | 12.6 | S | 0.0 | 355.3 | |||||||||
| 07:50 | 25.5 | 49.8 | 1025.4 | 5.9 | SSW | 12.7 | SW | 0.0 | 385.6 | |||||||||
| 08:00 | 25.9 | 47.7 | 1025.4 | 7.1 | SSW | 15.1 | SSW | 0.0 | 415.6 | |||||||||
| 08:10 | 25.9 | 47.0 | 1025.4 | 8.5 | SSW | 16.8 | SSW | 0.0 | 444.9 | |||||||||
| 08:20 | 26.3 | 46.1 | 1025.4 | 8.8 | SSW | 18.0 | S | 0.0 | 473.9 | |||||||||
| 08:30 | 26.5 | 45.6 | 1025.5 | 9.5 | SSW | 17.8 | SSW | 0.0 | 502.3 | |||||||||
| 08:40 | 26.8 | 44.9 | 1025.6 | 10.0 | SSW | 17.8 | SSW | 0.0 | 529.2 | |||||||||
| 08:50 | 26.9 | 44.8 | 1025.7 | 9.2 | SSW | 18.3 | SSW | 0.0 | 555.3 | |||||||||
| Màxima | 26.9 | 75.6 | 1025.7 | 10.0 | SSW | 18.3 | SSW | 0.0 | 555.3 | |||||||||
| Mínima | 19.1 | 44.8 | 1024.5 | |||||||||||||||
| Total | 0.0 | |||||||||||||||||